CW8668 Weather Reports


Display with metric or nautical units.
time (UTC)temp
F
wind
direction
speed
MPH
gust
MPH
rain 1hr
in
rain 24hr
in
rain mn
in
humidity
%
barometer
mb
20260507154516 61 180 1.0 6.0 0.00 0.08 0.01 49 1008.2
20260507153016 62 158 1.0 5.0 0.00 0.08 0.01 45 1008.4
20260507151516 62 203 3.0 14.0 0.00 0.08 0.01 45 1008.5
20260507150016 63 203 4.0 15.0 0.00 0.08 0.01 43 1008.2
20260507144516 62 158 3.0 8.0 0.00 0.08 0.01 47 1008.3
20260507143016 61 135 3.0 13.0 0.00 0.08 0.01 47 1008.4
20260507141516 61 113 6.0 15.0 0.00 0.08 0.01 47 1008.5
20260507140016 62 68 4.0 12.0 0.00 0.08 0.01 48 1008.7
20260507134516 62 45 5.0 14.0 0.00 0.08 0.01 47 1008.7
20260507133016 61 45 4.0 11.0 0.00 0.08 0.01 45 1008.7
20260507131516 61 158 3.0 11.0 0.00 0.08 0.01 44 1008.9
20260507130016 63 270 2.0 12.0 0.00 0.08 0.01 47 1008.9
20260507124516 62 225 3.0 7.0 0.00 0.08 0.01 47 1009.3
20260507123016 61 203 3.0 9.0 0.00 0.08 0.01 48 1009.2
20260507121516 62 203 2.0 6.0 0.00 0.08 0.01 47 1009.4
20260507120016 63 203 2.0 6.0 0.00 0.08 0.01 46 1009.3
20260507114516 62 158 3.0 14.0 0.00 0.08 0.01 45 1009.6
20260507113016 62 203 2.0 7.0 0.00 0.08 0.01 45 1009.9
20260507111515 61 225 3.0 7.0 0.00 0.08 0.01 45 1009.8
20260507110015 61 135 3.0 8.0 0.00 0.08 0.01 48 1009.9
20260507104516 62 113 3.0 8.0 0.00 0.08 0.01 45 1009.9
20260507103035 61 203 2.0 7.0 0.00 0.08 0.01 40 1009.9
20260507101516 60 270 2.0 7.0 0.00 0.08 0.01 43 1010.1
20260507100015 59 225 2.0 6.0 0.00 0.08 0.01 51 1010.2
20260507094515 58 203 1.0 6.0 0.00 0.08 0.01 51 1010.6
20260507093016 57 203 2.0 7.0 0.00 0.08 0.01 58 1010.6
20260507091515 56 225 2.0 6.0 0.00 0.08 0.01 62 1010.8
20260507090036 54 225 3.0 6.0 0.00 0.08 0.01 69 1010.6
20260507084515 52 225 2.0 6.0 0.00 0.08 0.01 74 1010.6
20260507083015 51 203 1.0 3.0 0.00 0.08 0.01 81 1010.7
20260507081615 48 23 1.0 2.0 0.00 0.08 0.01 88 1010.9
20260507080016 48 0.0 2.0 0.00 0.08 0.01 88 1010.8
20260507074515 47 0.0 2.0 0.00 0.08 0.01 90 1010.9
20260507073015 46 315 1.0 3.0 0.00 0.08 0.01 90 1011.2
20260507071515 0 0.0 0.0 0.00 0.08 0.01
20260507070017 45 0 1.0 2.0 0.00 0.08 0.01 90 1010.5
20260507064537 45 0.0 3.0 0.00 0.08 0.01 90 1010.5
20260507063017 45 68 2.0 3.0 0.01 0.08 0.01 90 1010.4
20260507061517 45 0.0 2.0 0.01 0.08 0.01 90 1010.4
20260507060057 45 0.0 2.0 0.01 0.08 0.01 90 1009.9
20260507054517 45 0.0 2.0 0.01 0.08 0.01 90 1009.9
20260507053017 44 0.0 1.0 0.00 0.07 0.00 90 1010.0
20260507051557 44 113 1.0 3.0 0.00 0.07 0.00 90 1010.0
20260507050017 44 0.0 2.0 0.00 0.07 0.00 90 1009.8
20260507044517 45 0.0 2.0 0.00 0.07 0.00 90 1009.4
20260507043017 45 68 1.0 2.0 0.00 0.07 0.00 90 1009.4
20260507041517 45 0.0 2.0 0.00 0.07 0.00 90 1009.4
20260507040017 45 0.0 3.0 0.00 0.07 0.00 89 1009.7
20260507034517 45 0.0 1.0 0.00 0.07 0.00 89 1009.6
20260507033017 45 0.0 0.0 0.00 0.07 0.00 89 1009.6
20260507031537 46 0.0 1.0 0.00 0.07 0.00 88 1009.5
20260507030017 46 0.0 2.0 0.00 0.07 0.00 88 1009.3
20260507024517 47 0.0 0.0 0.00 0.07 0.00 87 1009.3
20260507023017 47 0.0 1.0 0.00 0.07 0.00 87 1009.5
20260507021517 47 0.0 1.0 0.00 0.07 0.00 87 1009.6
20260507020017 47 0.0 2.0 0.00 0.07 0.00 87 1009.7
20260507014537 47 0.0 2.0 0.00 0.07 0.00 86 1009.9
20260507013017 47 45 1.0 3.0 0.00 0.07 0.00 86 1009.9
20260507011536 47 45 1.0 3.0 0.00 0.07 0.00 86 1010.0
20260507010037 47 45 1.0 2.0 0.00 0.07 0.00 85 1010.0
20260507004536 47 45 1.0 3.0 0.00 0.07 0.00 85 1010.2
20260507003016 47 45 2.0 6.0 0.00 0.07 0.00 84 1010.4
20260507001516 47 45 3.0 6.0 0.00 0.07 0.00 84 1010.4
20260507000016 47 23 3.0 7.0 0.00 0.07 0.07 85 1010.7
20260506234517 47 23 4.0 7.0 0.00 0.07 0.07 85 1010.7
20260506233037 47 23 2.0 6.0 0.00 0.07 0.07 85 1010.7
20260506231517 47 23 4.0 7.0 0.00 0.07 0.07 85 1010.7
20260506230017 47 23 3.0 5.0 0.00 0.07 0.07 86 1010.9
20260506224517 47 23 2.0 6.0 0.00 0.07 0.07 86 1010.9
20260506223036 47 23 2.0 5.0 0.00 0.07 0.07 86 1010.8
20260506221517 47 45 1.0 3.0 0.00 0.07 0.07 85 1010.8
20260506220017 47 23 2.0 6.0 0.00 0.07 0.07 84 1010.9
20260506214536 47 23 3.0 6.0 0.02 0.07 0.07 84 1010.8
20260506213016 47 23 4.0 10.0 0.05 0.07 0.07 83 1010.8
20260506211516 48 23 2.0 7.0 0.07 0.07 0.07 82 1010.6
20260506210016 48 0.0 3.0 0.07 0.07 0.07 80 1011.0
20260506204516 50 0 1.0 3.0 0.05 0.05 0.05 76 1011.0
20260506203016 51 0 2.0 6.0 0.02 0.02 0.02 75 1010.8
20260506201516 51 45 6.0 14.0 0.00 0.00 0.00 74 1010.3
20260506200016 51 45 8.0 14.0 0.00 0.00 0.00 73 1010.1
20260506194516 52 45 7.0 14.0 0.00 0.00 0.00 72 1009.6
20260506193017 52 45 7.0 12.0 0.00 0.00 0.00 71 1009.5
20260506191516 53 45 7.0 14.0 0.00 0.00 0.00 70 1009.3
20260506190017 54 45 6.0 12.0 0.00 0.00 0.00 66 1009.1
20260506184516 55 45 4.0 10.0 0.00 0.00 0.00 62 1008.8
20260506183017 55 23 2.0 6.0 0.00 0.00 0.00 64 1008.5
20260506181516 56 23 1.0 3.0 0.00 0.00 0.00 59 1008.4
20260506180017 57 0 1.0 3.0 0.00 0.00 0.00 57 1008.4
20260506174536 57 23 2.0 7.0 0.00 0.00 0.00 55 1008.1
20260506173016 57 68 2.0 7.0 0.00 0.00 0.00 54 1008.1
20260506171516 58 270 3.0 10.0 0.00 0.01 0.00 52 1008.0
20260506170016 59 270 1.0 7.0 0.00 0.09 0.00 48 1007.8
20260506164521 58 113 3.0 12.0 0.00 0.16 0.00 49 1007.8
20260506163016 58 113 4.0 10.0 0.00 0.17 0.00 50 1007.6
20260506161516 59 113 3.0 10.0 0.00 0.17 0.00 47 1007.5
20260506160016 58 135 6.0 19.0 0.00 0.17 0.00 48 1007.6